Main page
METAR-TAF:

METAR-TAF

Airports :

Quentin Aanenson Field

Luverne, Minnesota, United States

latitude: 43-37-16N, longitude: 096-12-58W, elevation: 1430 ft

Current weather observation

The report was made 29 minutes ago, at 04:15 UTC
Wind 8 mph from the North
Temperature 61°F
Humidity 82%
Pressure 29.91 in. Hg
Visibility: 10 miles
Broken clouds at a height of 2900 ft
Overcast at a height of 4600 ft

METAR: KLYV 260415Z AUTO 35007KT 10SM BKN029 OVC046 16/13 A2991 RMK AO2

Time: 23:44 (04:44 UTC)


TAF: missing

Weather observations and forecasts of more than 4000 airports (METAR and TAF reports).

The available stations are represented by yellow and red dots on the map.

Hover mouse over dot to see the name of the station.

Then click to see weather observations and forecasts.

To change the map : click on the green buttons with a black cross to zoom in, on the green button with a dash to zoom out, or on the green arrows for adjacent maps.


METAR-TAF: